{"data":{"norad_id":66955,"intl_designator":"2025-287C","name":"HULIANWANG DIGUI-116","alt_names":[],"object_type":"PAYLOAD","status":"ACTIVE","operator":null,"country":"PRC","launch_date":"2025-12-08","launch_site_code":"TAISC","launch_vehicle":null,"mission":null,"orbit_class":"UNKNOWN","rcs_meters":null,"size_class":null,"mass_kg":null,"dimensions":null,"purposes":[],"wikipedia_slug":null,"has_3d_model":false,"image_url":null,"decayed_at":null,"tle_current":{"epoch":"2026-09-20T22:07:30.428544Z","epoch_age_seconds":75554,"freshness":"FRESH","line1":"1 66955U 25287C   26263.92187996  .00000062  00000+0  10944-3 0  9993","line2":"2 66955  86.4844 249.8597 0001548  88.1447 271.9864 13.24402856 38015","mean_motion":13.24402856,"eccentricity":0.0001548,"inclination_deg":86.4844,"raan_deg":249.8597,"arg_perigee_deg":88.1447,"mean_anomaly_deg":271.9864,"bstar":0.00010944,"rev_number":3801,"period_min":108.72824635467,"perigee_km":1166.7811877181,"apogee_km":1169.1174560433,"semimajor_km":7546.0863218807,"source":"CELESTRAK","updated_at":"2026-09-21T09:00:16.320930Z"}}}